GW4543 Weather Reports


time (UTC)temp
C
wind
direction
speed
KPH
gust
KPH
rain 1hr
cm
rain 24hr
cm
rain mn
cm
humidity
%
barometer
mb
20260506081320 15 189 6.4 12.9 0.00 0.00 0.00 84 1011.9
20260506080817 15 313 9.7 22.5 0.00 0.00 0.00 84 1012.2
20260506080313 15 265 4.8 8.0 0.00 0.00 0.00 84 1012.2
20260506073257 15 283 3.2 8.0 0.00 0.00 0.00 84 1011.9
20260506072754 15 232 1.6 3.2 0.00 0.00 0.00 84 1011.5
20260506072252 15 178 1.6 4.8 0.00 0.00 0.00 84 1011.5
20260506071749 15 182 1.6 4.8 0.00 0.00 0.00 84 1011.5
20260506071247 15 122 4.8 4.8 0.00 0.00 0.00 84 1011.5
20260506070744 15 64 3.2 4.8 0.00 0.00 0.00 84 1011.5
20260506070241 15 102 4.8 11.3 0.00 0.00 0.00 84 1011.5
20260506062218 16 252 3.2 9.7 0.00 0.00 0.00 84 1011.2
20260506061714 16 56 3.2 9.7 0.00 0.00 0.00 84 1011.5
20260506061211 16 308 3.2 4.8 0.00 0.00 0.00 83 1011.5
20260506060710 16 80 3.2 4.8 0.00 0.00 0.00 83 1011.5
20260506060206 16 111 1.6 12.9 0.00 0.00 0.00 83 1011.5
20260506051138 17 280 3.2 11.3 0.00 0.00 0.00 81 1011.5
20260506050637 17 317 6.4 12.9 0.00 0.00 0.00 81 1011.5
20260506050133 17 31 6.4 11.3 0.00 0.00 0.00 81 1011.9
20260506045127 17 17 6.4 12.9 0.00 0.00 0.00 81 1011.9
20260506044625 17 29 3.2 4.8 0.00 0.00 0.00 81 1011.9
20260506044121 17 2 6.4 9.7 0.00 0.00 0.00 81 1011.5
20260506043619 18 39 3.2 11.3 0.00 0.00 0.00 81 1011.5
20260506043117 18 159 4.8 11.3 0.00 0.00 0.00 81 1011.2
20260506042615 18 279 1.6 9.7 0.00 0.00 0.00 81 1011.2
20260506042113 18 28 6.4 11.3 0.00 0.00 0.00 80 1011.5
20260506041612 18 6 6.4 12.9 0.00 0.00 0.00 80 1011.5
20260506041108 18 237 3.2 9.7 0.00 0.00 0.00 79 1011.5
20260506040606 18 67 6.4 16.1 0.00 0.00 0.00 79 1011.5
20260506035559 19 66 3.2 8.0 0.00 0.00 0.00 78 1011.2
20260506035055 19 21 4.8 11.3 0.00 0.00 0.00 78 1011.2
20260506034553 19 47 8.0 12.9 0.00 0.00 0.00 78 1011.2
20260506034050 19 39 0.0 4.8 0.00 0.00 0.00 78 1010.8
20260506033547 19 157 3.2 9.7 0.00 0.00 0.00 77 1010.5
20260506033044 20 16 4.8 8.0 0.00 0.00 0.00 77 1010.8
20260506032541 20 47 4.8 9.7 0.00 0.00 0.00 76 1010.5
20260506032038 20 29 6.4 14.5 0.00 0.00 0.00 76 1010.5
20260506031536 20 257 4.8 9.7 0.00 0.00 0.00 76 1010.2
20260506031032 20 251 1.6 12.9 0.00 0.00 0.00 76 1010.5
20260506030531 20 135 4.8 9.7 0.00 0.00 0.00 76 1010.2
20260506030028 20 11 4.8 9.7 0.00 0.00 0.00 76 1009.8
20260506025525 20 337 4.8 11.3 0.00 0.00 0.00 75 1010.2
20260506025020 20 91 6.4 9.7 0.00 0.00 0.00 75 1009.8
20260506024518 20 207 1.6 11.3 0.00 0.00 0.00 75 1009.8
20260506024014 20 201 1.6 9.7 0.00 0.00 0.00 75 1009.8
20260506023510 20 354 4.8 8.0 0.00 0.00 0.00 75 1009.8
20260506023008 20 50 4.8 11.3 0.00 0.00 0.00 74 1009.4
20260506022505 21 32 6.4 12.9 0.00 0.00 0.00 74 1009.8
20260506022002 21 77 8.0 14.5 0.00 0.00 0.00 75 1009.4
20260506021500 21 140 4.8 11.3 0.00 0.00 0.00 75 1009.4
20260506020957 21 84 6.4 12.9 0.00 0.00 0.00 75 1009.4
20260506020454 21 65 3.2 11.3 0.00 0.00 0.00 75 1009.0
20260506015951 21 71 6.4 9.7 0.00 0.00 0.00 74 1008.7
20260506015449 21 40 4.8 11.3 0.00 0.00 0.00 74 1008.7
20260506014945 22 163 6.4 9.7 0.00 0.00 0.00 74 1008.4
20260506014442 22 160 1.6 8.0 0.00 0.00 0.00 73 1008.4
20260506013939 22 160 3.2 9.7 0.00 0.00 0.00 72 1008.4
20260506013437 22 22 9.7 12.9 0.00 0.00 0.00 72 1008.0
20260506012933 22 150 1.6 9.7 0.00 0.00 0.00 72 1008.0
20260506012429 22 178 4.8 8.0 0.00 0.00 0.00 73 1008.0
20260506011926 22 220 1.6 9.7 0.00 0.00 0.00 72 1008.0
20260506011424 22 193 0.0 4.8 0.00 0.00 0.00 71 1007.7
20260506010920 22 312 8.0 12.9 0.00 0.00 0.00 71 1007.4
20260506010420 23 302 4.8 9.7 0.00 0.00 0.00 71 1007.7
20260506005915 23 14 4.8 8.0 0.00 0.00 0.00 71 1007.7
20260506005413 23 300 4.8 9.7 0.00 0.00 0.00 71 1007.7
20260506004908 23 51 6.4 9.7 0.00 0.00 0.00 71 1007.4
20260506004407 23 48 9.7 16.1 0.00 0.00 0.00 70 1007.4
20260506003902 23 262 3.2 14.5 0.00 0.00 0.00 70 1007.4
20260506003358 23 293 8.0 11.3 0.00 0.00 0.00 69 1007.0
20260506002855 24 19 3.2 8.0 0.00 0.00 0.00 68 1007.0
20260506002351 24 255 3.2 9.7 0.00 0.00 0.00 66 1007.4
20260506001847 24 53 1.6 8.0 0.00 0.00 0.00 66 1007.0
20260506001344 25 45 3.2 8.0 0.00 0.00 0.00 66 1006.7
20260506000841 25 159 1.6 4.8 0.00 0.00 0.00 66 1007.0
20260506000340 25 49 3.2 8.0 0.00 0.00 0.00 65 1007.0
20260505235835 25 147 4.8 14.5 0.00 0.00 0.00 65 1007.0
20260505235333 25 125 9.7 14.5 0.00 0.00 0.00 66 1007.0
20260505234830 25 184 3.2 9.7 0.00 0.00 0.00 66 1007.0
20260505234328 26 54 4.8 14.5 0.00 0.00 0.00 65 1006.7
20260505233824 26 139 6.4 14.5 0.00 0.00 0.00 65 1006.7
20260505233322 26 290 3.2 14.5 0.00 0.00 0.00 66 1006.3
20260505232819 26 192 4.8 16.1 0.00 0.00 0.00 65 1006.3
20260505232317 26 315 9.7 14.5 0.00 0.00 0.00 65 1006.7
20260505231813 27 327 1.6 9.7 0.00 0.00 0.00 66 1006.3
20260505231312 27 215 3.2 12.9 0.00 0.00 0.00 66 1006.3
20260505230810 27 19 9.7 12.9 0.00 0.00 0.00 65 1006.3
20260505230306 28 336 9.7 17.7 0.00 0.00 0.00 63 1006.0
20260505225803 28 304 4.8 11.3 0.00 0.00 0.00 60 1005.7
20260505225300 28 173 4.8 8.0 0.00 0.00 0.00 57 1006.0
20260505224755 28 350 1.6 11.3 0.00 0.00 0.00 56 1006.0
20260505224253 28 294 11.3 16.1 0.00 0.00 0.00 54 1006.0
20260505223750 30 183 8.0 14.5 0.00 0.00 0.00 54 1005.7
20260505223247 30 136 4.8 9.7 0.00 0.00 0.00 53 1005.7
20260505222743 30 118 3.2 11.3 0.00 0.00 0.00 53 1005.7
20260505222239 30 341 9.7 12.9 0.00 0.00 0.00 52 1005.7
20260505221736 31 267 8.0 12.9 0.00 0.00 0.00 52 1005.7
20260505221233 33 171 1.6 1.6 0.00 0.00 0.00 50 1005.3
20260505220729 33 251 4.8 4.8 0.00 0.00 0.00 51 1005.3
20260505220227 32 202 1.6 3.2 0.00 0.00 0.00 52 1005.0
20260505215725 32 216 1.6 4.8 0.00 0.00 0.00 52 1005.3
20260505215223 32 292 4.8 4.8 0.00 0.00 0.00 52 1005.3
20260505214720 32 202 1.6 4.8 0.00 0.00 0.00 53 1005.3
20260505214218 32 175 3.2 3.2 0.00 0.00 0.00 52 1005.7
20260505213715 32 240 3.2 4.8 0.00 0.00 0.00 51 1005.3
20260505213212 32 248 3.2 4.8 0.00 0.00 0.00 50 1005.7
20260505212708 32 300 3.2 9.7 0.00 0.00 0.00 52 1005.7
20260505212205 32 311 6.4 9.7 0.00 0.00 0.00 50 1005.7
20260505211702 32 244 1.6 8.0 0.00 0.00 0.00 50 1005.7
20260505211159 32 190 1.6 8.0 0.00 0.00 0.00 51 1005.7
20260505210656 32 354 6.4 11.3 0.00 0.00 0.00 48 1005.7
20260505210153 33 298 4.8 8.0 0.00 0.00 0.00 49 1005.7
20260505205650 33 299 4.8 8.0 0.00 0.00 0.00 49 1006.0
20260505205148 33 284 6.4 9.7 0.00 0.00 0.00 49 1006.0
20260505204644 33 184 4.8 8.0 0.00 0.00 0.00 52 1006.0
20260505204143 33 204 3.2 8.0 0.00 0.00 0.00 52 1006.0
20260505203639 33 234 1.6 4.8 0.00 0.00 0.00 51 1006.3
20260505203136 33 241 3.2 4.8 0.00 0.00 0.00 51 1006.0
20260505202632 33 215 3.2 9.7 0.00 0.00 0.00 53 1006.3
20260505202128 32 134 3.2 4.8 0.00 0.00 0.00 51 1006.0
20260505201625 33 246 8.0 12.9 0.00 0.00 0.00 51 1006.3
20260505201123 33 209 3.2 3.2 0.00 0.00 0.00 54 1006.7
20260505200620 32 204 3.2 9.7 0.00 0.00 0.00 53 1006.3
20260505200117 32 212 4.8 8.0 0.00 0.00 0.00 52 1006.3
20260505195608 32 200 6.4 11.3 0.00 0.00 0.00 52 1006.3
20260505195105 32 202 1.6 8.0 0.00 0.00 0.00 55 1006.3
20260505194556 32 233 3.2 9.7 0.00 0.00 0.00 55 1006.7
20260505194052 32 185 6.4 11.3 0.00 0.00 0.00 54 1006.7
20260505193549 32 197 1.6 3.2 0.00 0.00 0.00 56 1006.7
20260505193046 32 197 4.8 11.3 0.00 0.00 0.00 56 1006.7
20260505192545 32 251 3.2 14.5 0.00 0.00 0.00 56 1006.7
20260505192042 32 201 3.2 4.8 0.00 0.00 0.00 56 1006.7
20260505191540 32 179 3.2 11.3 0.00 0.00 0.00 56 1006.7
20260505191038 32 318 4.8 16.1 0.00 0.00 0.00 57 1006.7
20260505190537 31 190 3.2 9.7 0.00 0.00 0.00 59 1006.7
20260505190034 31 294 4.8 11.3 0.00 0.00 0.00 58 1006.7
20260505185531 31 100 4.8 17.7 0.00 0.00 0.00 59 1006.7
20260505185027 31 231 1.6 4.8 0.00 0.00 0.00 59 1006.7
20260505184524 31 214 8.0 12.9 0.00 0.00 0.00 60 1006.7
20260505184021 31 96 4.8 12.9 0.00 0.00 0.00 59 1006.7
20260505183518 31 207 8.0 9.7 0.00 0.00 0.00 62 1007.0
20260505183015 31 136 3.2 12.9 0.00 0.00 0.00 64 1007.0
20260505182511 30 220 4.8 9.7 0.00 0.00 0.00 64 1006.7
20260505182009 30 334 4.8 12.9 0.00 0.00 0.00 64 1007.0
20260505181505 30 184 9.7 14.5 0.00 0.00 0.00 65 1007.0
20260505181002 30 214 6.4 11.3 0.00 0.00 0.00 65 1007.0
20260505180457 30 27 3.2 12.9 0.00 0.00 0.00 66 1007.0
20260505175955 30 155 1.6 11.3 0.00 0.00 0.00 69 1007.0
20260505175451 29 172 3.2 12.9 0.00 0.00 0.00 69 1007.0
20260505174948 30 123 4.8 11.3 0.00 0.00 0.00 69 1007.0
20260505174445 30 146 4.8 4.8 0.00 0.00 0.00 70 1007.4
20260505173941 28 186 4.8 9.7 0.00 0.00 0.00 69 1007.4
20260505173437 28 166 1.6 12.9 0.00 0.00 0.00 70 1007.4
20260505172934 28 163 4.8 8.0 0.00 0.00 0.00 71 1007.4
20260505172433 28 174 8.0 11.3 0.00 0.00 0.00 71 1007.4
20260505171932 28 191 6.4 11.3 0.00 0.00 0.00 72 1007.7
20260505171429 27 212 8.0 12.9 0.00 0.00 0.00 73 1007.4
20260505170926 27 194 3.2 11.3 0.00 0.00 0.00 74 1007.4
20260505170422 27 359 3.2 8.0 0.00 0.00 0.00 74 1007.4
20260505165918 27 174 3.2 8.0 0.00 0.00 0.00 74 1007.0
20260505165414 27 211 6.4 11.3 0.00 0.00 0.00 74 1007.7
20260505164909 27 189 4.8 9.7 0.00 0.00 0.00 74 1007.4
20260505164406 27 198 1.6 12.9 0.00 0.00 0.00 75 1007.4
20260505163904 27 186 6.4 11.3 0.00 0.00 0.00 75 1007.0
20260505163403 27 253 4.8 12.9 0.00 0.00 0.00 75 1007.0
20260505162901 27 159 3.2 4.8 0.00 0.00 0.00 75 1007.0
20260505162357 27 277 3.2 9.7 0.00 0.00 0.00 77 1007.0
20260505161854 26 83 4.8 12.9 0.00 0.00 0.00 77 1007.0
20260505161351 26 177 8.0 9.7 0.00 0.00 0.00 77 1006.7
20260505160848 26 210 3.2 8.0 0.00 0.00 0.00 78 1007.0
20260505160347 26 245 3.2 9.7 0.00 0.00 0.00 78 1006.7
20260505153325 25 197 1.6 11.3 0.00 0.00 0.00 82 1006.7
20260505152822 25 203 3.2 4.8 0.00 0.00 0.00 83 1006.7
20260505152319 24 225 3.2 12.9 0.00 0.00 0.00 83 1007.0
20260505151813 24 219 4.8 12.9 0.00 0.00 0.00 83 1007.0
20260505151310 24 246 9.7 14.5 0.00 0.00 0.00 83 1007.0
20260505150807 25 204 6.4 12.9 0.00 0.00 0.00 83 1007.0
20260505150304 24 300 4.8 14.5 0.00 0.00 0.00 83 1007.0
20260505140229 22 220 4.8 12.9 0.00 0.00 0.00 89 1006.7
20260505130152 21 248 8.0 11.3 0.00 0.00 0.00 92 1006.3
20260505124637 21 174 4.8 11.3 0.00 0.00 0.00 93 1006.3
20260505124134 21 166 3.2 9.7 0.00 0.00 0.00 93 1006.3
20260505123629 21 254 11.3 16.1 0.00 0.00 0.00 93 1006.0
20260505123126 21 185 4.8 9.7 0.00 0.00 0.00 93 1006.3
20260505122622 21 99 1.6 20.9 0.00 0.00 0.00 93 1006.0
20260505122120 21 157 4.8 12.9 0.00 0.00 0.00 93 1006.0
20260505121616 21 193 4.8 9.7 0.00 0.00 0.00 93 1006.0
20260505121113 21 210 6.4 11.3 0.00 0.00 0.00 93 1006.0
20260505120609 21 163 1.6 8.0 0.00 0.00 0.00 93 1006.0
20260505120105 21 155 1.6 4.8 0.00 0.00 0.00 93 1006.0
20260505115600 21 182 4.8 9.7 0.00 0.00 0.00 93 1006.0
20260505115057 21 159 3.2 8.0 0.00 0.00 0.00 93 1005.7
20260505114549 21 205 3.2 12.9 0.00 0.00 0.00 93 1005.7
20260505114045 21 203 6.4 17.7 0.00 0.00 0.00 93 1006.0
20260505113541 21 230 3.2 9.7 0.00 0.00 0.00 93 1006.0
20260505113038 21 219 1.6 8.0 0.00 0.00 0.00 93 1005.7
20260505112535 21 266 6.4 9.7 0.00 0.00 0.00 93 1006.0
20260505112033 21 248 1.6 11.3 0.00 0.00 0.00 93 1005.7
20260505111531 21 184 3.2 9.7 0.00 0.00 0.00 93 1005.7
20260505111028 21 171 6.4 9.7 0.00 0.00 0.00 93 1005.7
20260505110525 21 193 1.6 4.8 0.00 0.00 0.00 93 1005.7
20260505101952 20 167 3.2 4.8 0.00 0.00 0.00 94 1005.7
20260505101449 20 272 3.2 11.3 0.00 0.00 0.00 94 1005.7
20260505100945 20 232 1.6 9.7 0.00 0.00 0.00 94 1005.7
20260505100443 20 275 4.8 8.0 0.00 0.00 0.00 94 1005.7
20260505095939 20 195 3.2 8.0 0.00 0.00 0.00 94 1006.0
20260505095436 20 218 3.2 8.0 0.00 0.00 0.00 94 1006.0
20260505094932 20 220 1.6 8.0 0.00 0.00 0.00 94 1005.7
20260505094429 20 207 1.6 11.3 0.00 0.00 0.00 94 1006.0
20260505093925 20 135 3.2 4.8 0.00 0.00 0.00 94 1006.0
20260505093422 20 190 0.0 1.6 0.00 0.00 0.00 94 1006.0
20260505092920 20 221 1.6 9.7 0.00 0.00 0.00 94 1006.0
20260505092418 20 202 3.2 9.7 0.00 0.00 0.00 93 1006.0
20260505091915 20 195 3.2 9.7 0.00 0.00 0.00 93 1006.3
20260505091412 20 199 1.6 3.2 0.00 0.00 0.00 93 1006.0
20260505090910 20 209 3.2 4.8 0.00 0.00 0.00 93 1006.3
20260505090408 20 173 4.8 9.7 0.00 0.00 0.00 93 1006.3
20260505085905 20 177 1.6 3.2 0.00 0.00 0.00 93 1006.3
20260505085402 21 182 1.6 4.8 0.00 0.00 0.00 92 1006.3
20260505084901 21 200 3.2 9.7 0.00 0.00 0.00 92 1006.3
20260505084359 21 42 4.8 4.8 0.00 0.00 0.00 92 1006.0
20260505083856 21 206 3.2 8.0 0.00 0.00 0.00 92 1006.3
20260505083353 21 223 4.8 9.7 0.00 0.00 0.00 91 1006.3
20260505082849 21 177 1.6 4.8 0.00 0.00 0.00 91 1006.3
20260505082345 21 205 4.8 9.7 0.00 0.00 0.00 91 1006.3
20260505081842 21 126 8.0 11.3 0.00 0.00 0.00 90 1006.3